Tracking 30746 objects as of 20-Jun-2025
HD Live streaming from Space Station
objects crossing your sky now

COSMOS 1275 DEB

Track COSMOS 1275 DEB now!
10-day predictions


NORAD ID: 42143
Int'l Code: 1981-053RF
Perigee: 898.6 km
Apogee: 1,042.5 km
Inclination: 83.0 °
Period: 104.3 minutes
Semi major axis: 7341 km
RCS: Unknown
Launch date: June 4, 1981
Source: Commonwealth of Independent States (former USSR) (CIS)
Launch site: PLESETSK MISSILE AND SPACE COMPLEX (PKMTR)

Note: This is SATELLITE DEBRIS
Your satellite tracking list
Your tracking list is empty




NASA's NSSDC Master Catalog

Two Line Element Set (TLE):
1 42143U 81053RF  25165.56597324  .00001308  00000-0  12000-2 0  9998
2 42143  83.0139 101.2080 0097985 336.3308  23.3357 13.80132709 27923
Source of the keplerian elements: AFSPC